Theta_e
308 308 308 307 307 306 306 305 305 305 305 305 305 305 305 305 305 304 304 304 304 303 303 302 302 301 301 300 300 300 300 301 301 301 301 301 301 300 300 299 299 298 298 298 297 297 297 297 297 297 297 298 298 298 298 298 297 297 296 296 296 295 295 295 294 294 293 293 293 293 293 294 294 295 295 296 296 296 296 296 296 296 296 296 296 296
308 307 307 307 306 306 306 305 305 305 305 305 305 305 305 305 305 305 304 304 304 303 303 302 302 301 301 300 300 300 299 299 299 299 299 299 299 299 298 298 298 298 297 297 297 297 297 297 297 297 297 298 298 298 298 297 297 296 296 295 295 294 293 293 292 291 290 290 290 291 291 292 292 293 293 293 294 294 294 294 294 294 294 294 294 295
307 307 306 306 306 306 306 306 306 306 306 306 306 306 305 305 305 305 305 304 304 303 303 302 301 301 300 300 299 299 299 299 298 298 298 298 298 298 297 297 297 297 297 297 297 297 297 297 297 298 298 298 298 298 297 297 296 296 295 294 293 292 291 290 289 289 288 288 288 289 289 289 290 290 290 291 291 291 292 292 292 292 292 293 293 293
306 306 306 306 306 306 306 306 306 306 306 306 306 306 306 306 306 305 305 304 303 303 302 302 301 300 300 299 299 298 298 297 297 297 297 297 297 297 297 297 297 297 297 297 297 297 298 298 298 298 298 298 297 297 297 296 296 295 294 293 292 290 289 289 288 288 288 288 288 289 289 289 289 289 289 289 289 290 290 290 291 291 291 291 291 292
306 306 306 306 306 306 306 306 306 306 306 306 306 306 306 306 306 305 304 304 303 302 302 301 301 300 299 299 298 298 297 297 297 297 297 297 297 297 297 298 298 298 298 298 298 298 298 298 298 297 297 297 297 296 296 295 294 293 292 291 290 289 289 288 288 288 288 288 288 288 288 288 288 288 288 289 289 289 289 290 290 290 291 291 291 291
305 305 305 305 306 306 306 306 306 305 305 305 305 305 305 305 305 304 304 303 303 302 301 301 300 300 299 299 298 298 298 297 297 297 297 297 297 298 298 298 298 298 298 298 298 298 298 297 297 297 297 296 296 295 294 293 292 291 291 290 289 289 288 288 288 288 287 287 287 287 287 287 287 287 288 288 288 288 289 289 289 289 290 290 291 291
305 305 305 305 305 305 305 305 305 305 305 305 305 305 304 304 304 304 303 303 302 301 301 300 300 300 300 299 299 299 298 298 298 298 298 298 298 298 298 298 298 298 298 298 298 297 297 297 296 296 295 295 294 293 292 291 290 290 289 289 289 288 288 288 287 287 287 287 287 286 286 286 286 287 287 287 288 288 288 288 289 289 289 290 290 291
305 305 304 304 304 304 304 304 304 304 304 304 304 304 303 303 302 302 302 301 301 301 300 300 300 299 299 299 299 299 298 298 298 298 298 298 298 298 298 298 298 298 297 297 297 296 296 295 295 294 293 292 291 291 290 290 289 289 289 288 288 288 287 287 287 286 286 286 286 286 286 286 286 286 287 287 287 288 288 288 288 288 289 289 290 291
304 304 304 304 304 304 304 304 304 304 303 303 303 303 302 302 301 301 300 300 300 300 300 299 299 299 299 299 299 298 298 298 298 298 298 297 297 297 297 297 297 296 296 295 295 294 293 293 292 291 291 290 290 289 289 289 289 288 288 288 287 287 287 287 286 286 286 286 285 285 285 285 286 286 287 287 287 288 288 288 288 288 289 289 290 290
304 304 304 304 303 303 303 303 303 303 302 302 302 301 301 300 300 299 299 299 299 299 299 299 298 298 298 298 298 298 298 297 297 297 297 296 296 296 295 295 294 294 293 293 292 291 291 290 290 290 289 289 289 289 288 288 288 288 287 287 287 287 287 286 286 286 286 285 285 285 285 285 286 287 287 287 288 288 288 288 288 289 289 289 289 290
304 304 303 303 303 303 303 302 302 302 301 300 300 299 299 298 298 298 297 297 297 297 297 297 297 297 297 296 296 295 295 295 295 294 294 294 294 293 293 292 292 291 291 290 290 290 289 289 289 289 289 288 288 288 288 288 287 287 287 287 287 286 286 286 286 286 285 285 285 285 285 286 286 287 287 288 288 288 288 288 289 289 289 289 289 289
303 303 303 303 303 302 302 301 301 300 299 299 298 297 297 296 296 296 296 295 295 295 295 295 294 294 294 294 293 293 293 292 292 292 291 291 291 291 290 290 290 290 289 289 289 289 288 288 288 288 288 288 288 288 287 287 287 287 287 287 286 286 286 286 285 285 285 285 285 286 286 287 287 287 288 288 288 288 288 289 289 289 289 289 289 289
303 303 303 302 302 301 301 300 299 298 297 296 296 295 295 295 294 294 294 294 293 293 293 292 292 291 291 291 291 291 290 290 290 290 290 289 289 289 289 289 289 289 289 289 288 288 288 288 288 288 288 288 287 287 287 287 287 287 286 286 286 286 286 285 285 285 285 285 286 286 287 287 287 288 288 288 288 288 289 289 289 289 289 289 289 290
303 303 302 302 301 300 299 297 296 295 295 294 294 294 293 293 293 292 292 291 291 291 290 290 290 289 289 289 289 289 289 289 289 289 289 289 289 289 288 288 288 288 288 288 288 288 288 288 287 287 287 287 287 287 287 287 286 286 286 286 285 285 285 285 285 285 286 286 286 287 287 288 288 288 288 288 289 289 289 289 289 289 289 289 289 290
303 302 301 300 298 297 296 295 294 293 292 292 292 292 291 291 291 290 290 290 289 289 289 288 288 288 288 288 288 288 288 288 288 288 288 288 288 288 288 288 288 288 288 288 288 287 287 287 287 287 287 287 287 287 286 286 286 285 285 285 285 285 285 286 286 286 286 287 287 287 288 288 288 288 289 289 289 289 289 289 289 289 289 290 290 290
301 300 299 297 295 294 293 292 292 291 291 291 290 290 290 289 289 289 289 288 288 288 288 288 288 288 288 288 288 288 288 288 288 288 288 288 288 288 288 288 288 287 287 287 287 287 287 287 287 287 287 287 286 286 286 285 285 285 285 285 285 286 286 286 286 287 287 287 288 288 288 288 288 289 289 289 289 289 289 289 289 289 290 290 290 290
299 297 295 294 292 291 291 290 290 290 289 289 289 289 289 288 288 288 288 288 288 288 288 288 288 288 289 288 288 288 288 288 287 287 287 287 287 287 287 287 287 287 287 287 287 287 286 286 286 286 286 286 286 285 285 285 285 285 285 286 286 286 287 287 287 287 288 288 288 288 288 289 289 289 289 289 289 289 289 289 289 290 290 290 290 290
295 293 292 291 290 289 289 289 289 289 288 288 288 288 288 288 288 288 288 288 288 288 288 288 288 288 288 288 288 287 287 287 287 287 287 287 287 287 287 287 287 286 286 286 286 286 285 285 285 286 285 285 285 285 285 285 285 286 286 287 287 287 287 287 288 288 288 288 288 288 289 289 289 289 289 289 289 289 290 290 290 290 290 290 290 290
291 290 290 289 289 289 288 288 288 288 288 288 288 288 288 288 288 288 287 287 287 287 287 287 287 287 286 287 287 287 286 286 286 286 286 286 286 286 286 286 285 285 285 285 285 285 285 285 285 285 285 285 285 285 285 285 286 286 287 287 288 288 288 288 288 288 288 288 288 289 289 289 289 289 289 289 290 290 290 290 290 290 290 290 290 290
290 289 289 288 288 288 288 288 288 288 288 288 288 288 288 287 287 287 287 287 287 286 286 286 286 286 286 285 285 286 285 285 285 285 285 285 285 285 285 285 285 285 285 285 285 285 285 285 285 285 285 285 285 285 285 286 287 287 288 288 288 288 288 288 288 288 288 289 289 289 289 289 289 289 289 289 290 290 290 290 290 290 290 290 290 290
289 288 288 288 288 288 288 288 288 288 287 287 287 287 287 287 287 287 286 286 286 286 286 285 285 285 285 285 285 285 285 285 285 285 285 285 285 285 285 285 285 285 285 285 285 285 285 285 285 285 285 285 285 286 286 287 287 288 288 288 288 288 288 288 288 289 289 289 289 289 289 289 289 289 290 290 290 290 290 290 290 290 290 290 290 290
288 288 288 287 287 287 287 287 287 287 286 286 286 286 286 286 286 286 286 286 286 285 285 285 285 285 285 285 285 285 285 285 285 285 285 285 285 285 285 285 284 284 285 285 285 285 285 285 285 285 286 286 286 286 286 287 288 288 288 288 288 288 289 289 289 289 289 289 289 289 289 289 289 289 290 290 290 290 290 290 290 290 290 290 290 290
287 287 287 287 287 286 286 286 286 286 286 286 286 286 286 285 285 285 285 285 285 285 285 285 285 285 285 285 284 284 284 284 285 284 284 284 284 284 285 284 284 284 285 285 285 285 285 286 286 286 286 286 286 286 287 287 288 288 288 288 289 289 289 289 289 289 289 289 289 289 289 289 289 289 290 290 290 290 290 290 290 290 290 290 290 290
287 287 287 286 286 286 286 286 286 286 286 286 285 285 285 285 285 285 285 285 285 285 285 285 285 284 284 284 284 284 284 284 284 284 284 284 284 284 284 284 284 285 285 285 285 286 286 286 286 286 286 287 287 287 287 288 288 288 289 289 289 289 289 289 289 289 289 289 289 289 289 289 289 289 290 290 290 290 290 290 290 290 290 290 290 291
287 287 286 286 286 286 286 286 286 286 286 286 285 285 285 285 285 285 285 285 285 285 285 284 284 284 284 284 284 283 283 283 284 284 284 284 284 284 284 284 285 285 285 286 286 286 286 286 287 287 287 287 287 287 288 288 288 288 289 289 289 289 289 289 289 289 289 289 289 289 289 289 289 289 289 290 290 290 290 290 290 290 290 290 290 291
287 287 286 286 286 286 286 286 286 286 286 285 285 285 285 285 285 285 285 285 285 285 284 284 284 284 284 284 284 284 283 283 283 283 284 284 284 284 284 285 285 286 286 286 286 286 287 287 287 287 287 288 288 288 288 288 288 289 289 289 289 289 289 289 289 289 289 289 289 289 289 289 289 289 289 290 290 290 290 290 290 290 290 290 291 291
287 286 286 286 286 286 286 286 286 286 285 285 285 285 285 285 285 285 285 285 285 285 284 284 284 284 284 284 284 284 283 283 283 283 284 284 284 285 285 285 286 286 286 287 287 287 287 287 287 287 288 288 288 288 288 288 288 288 288 289 289 289 289 289 289 289 289 289 289 289 289 289 289 289 289 290 290 290 290 290 290 290 290 291 291 291
286 286 286 286 286 286 286 286 286 285 285 285 285 285 285 285 285 285 285 285 284 284 284 284 284 283 283 283 283 283 283 283 283 283 284 284 285 285 285 286 286 286 287 287 287 287 287 288 288 288 288 288 288 288 288 288 288 288 288 288 289 289 289 289 289 289 289 289 289 289 289 289 289 289 290 290 290 290 290 290 290 290 290 291 291 291
286 286 286 286 286 286 286 285 285 285 285 285 285 285 285 285 285 285 284 284 284 284 283 283 283 283 283 283 283 283 283 283 283 284 284 285 285 285 286 286 286 287 287 287 288 288 288 288 288 288 288 288 288 288 288 288 288 288 288 288 288 289 289 289 289 289 289 289 289 289 289 289 290 290 290 290 290 290 290 290 291 291 291 291 291 291
286 286 285 285 285 285 285 285 285 285 285 285 285 285 284 284 284 284 284 284 283 283 283 283 283 283 283 283 283 283 283 283 284 284 285 285 285 286 286 286 287 287 287 287 288 288 288 288 288 288 288 288 288 288 288 288 288 288 288 288 288 289 289 289 289 289 289 289 289 289 290 290 290 290 290 290 290 291 291 291 291 291 291 291 291 291
285 285 285 285 285 286 286 285 285 285 285 285 285 285 284 284 284 284 284 283 283 283 283 283 283 282 282 282 282 282 283 284 284 284 285 285 285 286 286 286 287 287 287 287 287 287 287 288 288 288 288 288 288 288 288 288 288 288 289 289 289 289 289 289 289 289 289 290 290 290 290 290 290 290 291 291 291 291 291 291 291 291 291 291 291 291
285 285 285 285 286 286 286 286 286 286 285 285 285 285 284 284 284 284 283 283 283 283 283 283 283 282 282 282 282 282 283 284 284 285 285 285 286 286 286 286 287 287 287 287 287 287 287 287 288 288 288 288 289 289 289 289 289 289 289 289 289 289 289 289 289 290 290 290 290 290 290 290 290 290 291 291 291 291 291 291 291 291 290 291 291 291
285 285 285 285 285 285 285 285 285 285 285 285 285 284 284 284 284 284 284 283 283 283 283 283 283 282 282 282 282 283 283 284 284 285 285 286 286 286 286 286 286 287 287 287 287 287 287 288 288 289 289 289 289 289 289 289 289 289 289 289 290 290 290 290 290 290 290 290 290 290 290 290 290 290 290 290 290 290 290 290 290 290 290 290 290 290
285 285 284 285 285 285 285 285 285 285 284 284 284 284 284 284 284 284 284 283 283 283 283 283 283 282 282 282 283 283 283 284 285 285 285 286 286 286 286 286 286 287 287 287 287 287 288 288 289 289 290 290 290 290 290 290 290 290 290 290 290 290 290 290 290 290 290 290 290 290 290 290 290 290 290 290 290 290 290 290 290 290 290 290 290 290
284 284 284 284 284 284 284 284 284 284 284 284 284 284 284 284 284 284 284 284 283 283 283 283 283 283 283 283 283 283 284 284 285 285 286 286 286 286 286 286 286 287 287 287 287 288 288 289 289 289 290 290 290 290 290 290 290 290 290 290 290 290 291 291 291 291 291 290 290 290 290 290 290 290 290 290 290 289 289 289 289 289 289 289 289 289
284 284 284 284 284 284 284 284 284 284 284 284 284 284 284 284 284 284 284 284 284 283 283 283 283 283 283 283 283 284 284 284 285 285 285 286 286 286 286 286 286 286 287 287 287 288 288 289 289 289 290 290 290 290 290 290 290 290 290 290 291 291 291 291 291 291 291 290 290 290 290 290 289 289 289 289 289 289 289 289 289 289 288 288 288 288
284 284 284 284 284 285 285 285 285 285 285 285 285 285 285 284 284 284 284 284 284 283 283 283 283 283 283 283 284 284 284 285 285 285 285 285 286 286 286 286 286 286 287 287 287 288 288 289 289 289 290 290 290 290 289 289 290 290 290 290 290 290 291 291 291 291 290 290 290 290 289 289 289 289 289 289 289 288 288 288 288 288 288 288 288 288
284 284 284 284 284 285 285 285 285 285 285 285 285 285 285 285 285 284 284 284 284 284 283 283 283 283 283 283 284 284 285 285 285 285 285 285 286 286 286 286 286 286 287 287 287 288 288 288 289 290 290 290 289 289 289 289 290 290 290 290 290 290 290 290 290 290 290 290 290 289 289 289 289 288 288 288 288 288 288 288 288 288 288 288 288 288
284 284 284 284 284 285 285 285 285 285 285 285 285 285 285 285 285 285 284 284 284 284 283 283 283 283 283 284 284 285 285 285 285 285 285 285 285 286 286 286 286 286 287 287 287 288 288 289 289 289 289 290 290 289 289 289 290 290 290 290 290 290 290 289 289 289 289 289 289 289 289 289 288 288 288 288 288 288 288 288 288 288 288 288 288 288
284 284 284 284 284 285 285 285 285 285 285 285 285 285 285 285 285 285 284 284 284 284 284 283 283 284 284 284 284 285 285 285 285 285 285 285 285 286 286 286 286 286 287 287 288 288 289 289 289 289 289 289 290 290 289 289 290 290 290 290 290 289 289 289 289 289 289 289 289 289 288 288 288 288 288 288 288 288 288 288 288 288 288 288 288 288
284 284 284 284 284 285 285 285 285 285 285 285 285 285 285 285 285 285 284 284 284 284 284 284 284 284 284 284 285 285 285 285 285 285 285 285 285 286 286 286 286 287 287 287 288 288 289 289 289 289 289 289 289 289 290 290 290 289 289 289 289 289 289 289 289 289 289 289 288 288 288 288 288 288 288 288 288 288 288 288 288 288 288 288 288 288
284 284 284 284 285 285 285 285 285 285 285 285 285 285 285 285 285 285 284 284 284 284 284 284 284 284 284 284 285 285 285 285 285 285 285 285 285 286 286 286 286 287 287 287 288 288 289 289 289 289 289 289 289 289 289 290 289 289 289 289 289 289 289 289 289 288 288 288 288 288 288 288 288 288 288 288 288 288 288 288 288 288 288 288 288 288
284 284 284 284 284 285 285 285 285 285 285 285 285 285 285 285 285 284 284 284 284 284 284 284 284 284 284 285 285 285 285 286 286 286 286 286 286 286 286 286 286 287 287 288 288 288 288 288 289 289 289 289 289 289 289 289 289 289 289 289 289 289 289 289 288 288 288 288 288 288 287 288 288 288 288 288 288 288 288 288 288 288 288 288 288 288
284 284 284 284 284 284 285 285 285 285 285 285 285 285 285 285 285 284 284 284 284 284 284 284 284 284 284 285 285 285 285 286 286 286 286 286 286 286 286 286 287 287 287 288 288 288 288 288 288 288 288 288 288 289 289 289 289 289 289 289 288 288 288 288 288 288 288 288 288 288 287 287 287 287 288 288 288 288 288 288 288 288 288 288 288 288
284 284 284 284 284 284 284 285 285 285 285 285 285 285 285 285 284 284 284 284 284 283 283 284 284 284 284 285 285 285 285 285 285 285 285 286 286 286 286 286 287 287 287 287 287 288 288 288 288 288 288 288 288 289 289 289 289 289 289 288 288 288 288 288 288 288 288 288 288 288 287 287 287 287 287 288 288 288 288 288 288 288 288 288 288 288
284 284 284 284 284 284 284 284 285 285 285 285 284 284 284 284 284 284 284 284 284 283 284 284 284 284 284 285 285 285 285 285 285 285 285 286 286 286 286 286 287 287 287 287 287 287 287 288 288 288 288 288 288 289 289 289 289 289 289 288 288 288 288 288 288 288 288 288 288 287 287 287 287 287 287 287 288 288 288 288 288 288 288 288 288 288
284 284 284 284 284 284 284 284 284 284 284 284 284 284 284 284 284 284 284 284 284 284 284 284 284 284 285 285 285 285 285 285 285 285 285 285 286 286 286 286 287 287 287 287 287 287 287 287 287 287 288 288 288 288 289 288 288 288 288 288 288 288 288 288 288 288 287 287 287 287 287 287 287 287 287 287 288 288 288 288 287 287 287 287 287 287
284 283 284 284 284 284 284 284 284 284 284 284 284 284 284 284 284 284 284 284 284 284 284 284 284 284 285 285 285 285 285 285 285 285 285 285 286 286 286 286 286 286 286 287 287 287 287 287 287 287 288 288 288 288 288 288 288 288 287 287 287 287 287 288 288 287 287 287 287 287 287 286 286 286 287 287 287 287 287 287 287 287 287 287 287 287
284 284 284 284 284 284 284 284 284 284 284 284 284 284 284 284 284 284 284 284 284 284 284 284 284 284 285 285 285 285 285 285 285 285 285 285 285 285 286 286 286 286 286 286 286 287 287 287 287 288 288 288 288 288 288 288 288 287 287 287 287 287 287 287 287 287 287 287 287 287 287 287 286 286 286 286 286 287 287 287 287 287 287 287 287 287
284 284 284 283 283 284 284 284 284 284 284 284 284 284 284 284 284 284 284 284 284 284 284 284 284 284 284 285 285 285 285 285 285 285 285 285 285 285 285 285 286 286 286 286 286 286 286 287 287 288 288 288 288 288 288 288 288 287 287 287 287 287 287 287 287 287 287 287 287 287 286 286 286 286 285 285 286 286 287 287 287 287 287 286 286 286
284 284 284 283 283 283 283 283 283 283 284 284 284 284 284 284 284 284 284 284 284 284 284 284 284 284 284 284 285 285 285 285 285 285 285 285 285 285 285 285 285 286 286 286 286 286 286 286 286 287 287 288 288 287 287 287 287 287 287 287 286 286 286 286 286 286 286 286 286 286 285 285 285 285 285 285 285 285 286 287 287 287 286 286 286 286
Wind_Speed
15 15 14 13 12 11 10 9 8 7 7 6 6 6 6 6 6 6 6 6 6 6 6 7 7 7 8 9 10 11 12 14 15 15 16 17 18 19 19 19 19 19 19 20 20 21 22 23 23 23 23 22 21 20 19 17 16 16 15 15 15 15 15 15 14 14 14 13 13 12 13 13 14 15 16 17 18 19 19 20 20 20 20 20 21 21
13 13 12 11 10 8 8 7 6 5 5 5 5 5 5 5 6 6 6 6 6 6 6 6 6 6 7 8 8 9 10 11 12 13 14 15 16 16 17 17 17 18 20 21 22 23 23 23 23 22 21 20 19 18 17 16 16 15 15 15 15 15 14 14 14 13 13 13 13 14 14 15 16 17 19 19 20 21 21 21 22 22 22 22 22 22
12 11 10 9 7 6 5 5 4 4 3 4 4 4 5 5 5 6 6 5 5 4 4 4 5 5 6 6 7 8 8 9 10 11 12 14 15 16 16 17 18 20 21 22 23 23 23 22 21 21 19 18 17 17 16 16 16 16 15 15 14 14 14 13 13 13 13 13 14 14 15 16 17 18 19 19 20 20 20 21 21 21 21 21 20 19
10 9 9 7 6 5 4 4 4 3 3 4 4 5 5 5 5 5 5 5 4 4 4 4 4 5 6 6 7 8 9 10 11 12 13 14 15 16 17 18 19 20 21 22 22 22 22 21 20 19 18 17 17 17 17 16 16 16 16 15 14 14 14 14 14 14 13 14 14 15 16 16 17 17 18 18 18 18 18 18 18 18 18 18 17 16
8 7 7 6 5 4 4 4 4 4 4 5 5 6 6 6 6 6 6 5 5 5 5 5 5 6 6 7 8 9 10 11 12 14 15 16 16 17 18 18 19 20 20 20 21 21 20 20 19 18 18 17 17 17 17 17 17 16 16 15 15 15 15 15 15 15 15 16 16 16 16 17 17 17 17 17 17 17 16 16 16 16 16 16 15 13
7 6 6 5 5 4 4 4 5 5 6 6 7 7 7 7 7 7 6 6 6 5 5 6 6 7 8 9 9 10 11 12 13 14 15 16 16 17 17 18 18 18 19 19 19 19 19 19 18 18 17 17 17 17 17 17 17 16 16 15 15 15 16 16 17 17 18 18 18 18 18 18 17 17 17 17 16 16 16 15 15 15 14 14 13 12
6 6 5 5 5 5 5 6 6 7 7 8 8 8 8 8 8 7 7 7 7 7 7 7 7 8 9 10 10 11 11 12 13 14 15 15 16 16 17 17 17 17 18 18 18 18 18 18 18 18 17 18 18 18 17 17 17 16 16 16 16 16 17 18 18 19 19 19 19 19 18 18 18 18 17 17 17 16 15 15 14 14 13 13 12 11
6 5 5 5 5 6 6 7 7 8 8 9 9 9 9 9 8 8 8 7 8 8 8 8 8 9 10 10 11 11 12 12 13 13 14 15 15 16 16 16 16 16 16 16 17 17 17 17 17 17 17 17 18 18 18 17 17 17 17 17 17 18 19 19 20 20 20 20 20 19 19 18 18 17 17 17 16 16 15 14 13 13 12 12 11 11
5 5 5 6 6 6 7 8 9 9 9 9 9 9 9 9 9 9 9 8 8 8 8 8 9 10 10 11 11 11 12 12 13 13 14 14 14 15 15 15 16 16 16 16 16 16 16 16 17 17 17 17 18 18 18 18 18 18 18 18 19 19 20 20 21 21 21 21 20 19 18 18 17 16 16 16 15 15 14 13 12 12 11 11 11 11
6 6 6 7 7 8 8 9 10 10 10 10 10 10 9 9 9 9 9 9 9 9 9 9 10 10 11 11 11 12 12 12 13 13 13 14 14 14 15 15 15 15 15 15 15 16 16 16 17 17 18 18 18 19 19 19 19 19 19 20 20 21 21 21 21 21 21 20 19 18 17 17 16 15 15 15 14 13 13 12 11 11 11 11 10 11
7 7 8 8 9 9 9 10 11 11 10 10 10 11 10 9 9 9 9 10 10 11 10 10 11 11 11 12 12 12 12 13 13 13 13 14 14 14 15 15 15 15 15 15 16 16 16 17 17 18 18 19 19 20 20 20 20 20 20 20 21 21 21 22 21 21 20 19 18 17 16 15 15 14 14 13 13 12 12 11 11 11 10 10 10 10
8 9 9 10 10 10 10 11 11 11 11 10 10 10 10 10 9 8 8 9 11 12 12 12 12 12 12 12 13 13 13 13 13 14 13 14 14 14 14 15 15 16 16 16 16 17 17 18 18 19 20 20 20 20 21 21 20 20 20 21 21 21 21 21 20 19 18 17 16 16 15 14 14 13 13 13 12 12 11 11 11 10 10 10 10 10
10 11 11 11 12 11 11 11 11 11 10 10 9 9 10 10 10 10 10 11 12 13 12 13 13 13 13 13 13 13 13 13 14 14 14 14 14 14 15 15 16 16 17 17 17 18 18 19 20 20 21 21 21 21 21 21 21 21 20 20 20 20 20 19 18 18 16 15 15 14 14 13 13 13 13 12 12 11 11 11 11 11 10 10 10 10
12 12 12 12 12 12 12 11 10 10 10 10 10 10 11 11 11 11 11 12 12 13 13 13 13 13 13 13 13 13 13 14 14 14 15 15 15 15 15 16 17 17 18 18 18 19 19 20 21 22 22 22 22 21 21 21 20 20 20 19 19 18 18 17 16 15 14 14 13 13 13 13 13 12 12 12 12 11 11 11 11 11 10 10 10 10
13 13 13 12 12 12 12 11 11 11 11 11 11 11 11 12 11 11 11 12 12 12 12 12 13 14 14 13 13 13 13 14 15 15 15 16 16 16 16 17 18 18 19 19 20 20 21 22 22 23 23 22 22 21 21 20 19 19 18 17 17 16 15 15 14 13 13 13 12 12 12 12 12 12 12 12 11 11 11 11 11 11 11 11 11 11
14 13 12 12 12 13 12 12 11 11 11 11 11 11 11 11 11 11 11 12 12 12 12 12 12 13 14 14 13 13 14 14 15 15 16 17 17 17 17 18 19 20 20 21 21 22 23 23 23 23 23 22 21 20 19 18 17 16 16 15 14 14 13 13 12 12 12 12 12 12 12 12 12 12 12 11 11 11 11 11 11 11 11 11 11 11
14 13 12 12 12 12 12 11 11 11 11 11 11 11 11 11 11 12 12 12 12 12 12 12 11 11 12 15 15 14 13 14 15 16 16 17 18 19 19 19 20 21 22 22 23 23 23 23 23 23 22 21 19 18 17 16 15 14 13 13 12 12 12 11 11 11 11 11 11 11 11 12 12 12 12 11 11 11 11 11 11 11 11 12 12 12
14 12 11 11 11 12 12 11 11 11 11 11 11 11 11 11 11 12 12 12 12 13 13 13 13 12 11 12 15 16 14 15 16 17 18 18 19 20 20 20 20 21 22 22 22 22 22 22 22 21 20 19 17 16 14 13 12 12 11 11 11 10 10 10 10 10 11 11 11 11 11 11 11 12 12 11 11 11 11 11 11 12 12 12 12 12
13 12 11 11 11 12 11 11 11 11 11 11 11 11 11 12 12 12 12 13 13 14 14 14 15 15 13 12 15 17 15 15 17 18 19 19 19 20 20 20 19 20 20 20 20 20 20 20 20 19 18 16 15 14 12 11 10 10 9 9 9 9 9 10 10 10 10 11 11 11 11 11 12 12 12 12 12 11 11 12 12 12 12 12 12 13
13 12 12 11 11 11 11 11 11 11 11 11 11 12 12 12 13 13 14 14 14 14 14 14 15 15 15 16 17 17 16 15 16 18 19 19 18 19 18 18 18 18 18 18 17 17 17 18 17 17 16 14 13 12 10 9 9 8 8 8 8 9 9 9 9 10 10 10 11 11 11 12 12 12 12 12 12 12 12 12 12 12 13 13 13 13
12 12 12 11 10 10 11 12 12 11 11 11 11 12 13 13 14 14 14 14 14 14 14 14 14 15 15 16 16 16 15 15 15 17 18 18 17 17 16 15 15 16 16 15 15 15 15 15 15 15 14 13 12 10 9 8 8 7 7 8 8 8 9 9 9 10 10 11 11 11 12 12 12 12 12 12 12 12 12 13 13 13 13 13 14 14
12 12 12 11 11 11 12 12 12 11 11 11 12 12 13 13 14 14 14 14 14 13 13 14 14 14 14 14 14 14 14 14 14 15 16 17 16 15 14 14 14 14 14 13 13 13 14 14 14 14 13 12 11 10 9 8 7 7 7 8 8 8 9 9 10 10 10 11 11 12 12 12 12 12 12 12 13 13 13 13 13 14 14 14 14 15
12 13 12 11 11 11 12 12 11 11 11 11 12 12 12 12 13 13 13 13 12 13 13 13 13 13 12 12 12 12 13 13 13 14 15 15 15 15 14 13 12 13 12 12 12 12 13 13 13 13 12 11 10 9 8 8 8 8 8 8 8 9 9 10 10 11 11 11 11 12 12 12 12 12 12 13 13 13 14 14 14 15 15 15 15 16
13 13 12 11 11 11 11 11 11 11 11 11 11 11 12 12 12 12 12 11 11 12 12 12 12 11 11 11 11 11 11 12 12 13 14 14 14 14 13 12 12 12 11 11 11 11 12 12 13 12 12 11 10 9 9 8 8 8 8 9 9 9 10 10 10 11 11 11 11 12 12 12 12 13 13 13 14 14 15 15 15 16 16 16 17 17
13 13 12 12 12 12 12 12 11 11 11 11 11 11 11 11 11 11 11 10 10 11 11 11 11 10 10 10 10 10 10 10 11 12 13 14 14 13 12 11 11 11 11 11 10 11 12 12 12 12 12 11 10 10 9 9 9 9 9 9 9 10 10 10 11 11 11 11 12 12 12 13 13 13 14 15 15 16 16 16 17 17 18 18 18 18
13 13 13 13 13 12 12 11 11 11 11 11 11 10 10 10 10 10 9 9 9 10 10 10 10 9 10 10 10 10 9 9 10 11 12 14 13 12 11 11 11 11 11 10 10 10 11 11 12 12 12 11 10 10 10 10 10 10 10 10 10 10 10 11 11 11 12 12 12 13 13 14 14 15 15 16 16 17 18 18 18 19 19 20 20 20
13 13 13 13 13 12 12 11 11 11 11 11 10 10 10 10 9 9 9 9 9 10 10 10 10 10 9 10 11 11 10 9 9 10 11 12 12 12 11 11 11 11 11 10 9 9 10 11 11 11 11 11 11 10 10 10 10 10 10 10 11 11 11 12 12 12 13 13 13 14 14 15 15 16 17 17 18 18 19 19 20 20 21 21 22 22
13 13 13 12 12 12 12 11 11 11 11 11 11 10 10 10 10 11 10 9 10 10 10 11 11 10 10 11 11 11 10 9 9 9 10 11 11 11 11 11 11 11 11 10 9 9 9 10 10 11 10 10 10 10 10 10 10 10 11 11 11 12 12 12 13 13 13 14 15 15 16 16 17 17 18 19 19 20 20 21 21 22 22 23 24 24
12 12 12 12 12 12 12 12 12 11 11 11 11 11 10 10 11 11 10 10 10 11 11 11 11 11 11 12 11 10 9 8 8 9 9 10 11 11 11 11 10 11 11 10 9 9 9 9 9 9 9 9 9 9 9 9 10 10 11 11 12 12 12 13 13 14 14 15 16 16 17 18 18 19 20 20 21 21 22 22 23 23 24 25 25 26
12 12 12 12 12 12 12 12 12 12 12 11 11 11 10 10 10 11 10 10 11 11 12 11 11 11 11 12 12 11 10 8 7 8 9 10 11 11 11 10 10 10 10 11 11 10 9 8 7 6 6 7 7 7 8 8 9 10 11 11 12 12 13 14 14 15 15 16 17 17 18 19 19 20 21 21 22 23 23 24 24 25 25 26 27 27
12 12 12 12 12 12 11 11 11 11 11 10 10 10 9 9 10 10 10 11 11 11 12 11 11 11 11 11 12 11 10 9 7 7 8 10 11 11 11 11 11 11 10 11 11 11 10 9 7 6 6 6 7 7 8 9 10 10 11 12 12 13 13 14 15 15 16 17 18 18 19 20 20 21 22 22 23 24 24 25 25 26 26 27 28 28
11 11 12 12 11 11 11 11 11 10 10 9 9 8 9 9 9 10 11 11 11 11 12 11 11 11 11 11 11 11 11 10 8 8 8 10 11 11 11 11 11 11 10 10 10 10 9 10 10 9 8 8 8 8 9 9 10 11 11 11 12 12 13 14 14 15 16 17 18 19 20 21 21 22 23 24 24 25 25 26 26 27 27 28 29 29
10 11 11 11 12 12 11 11 11 10 10 9 9 9 9 9 10 10 11 11 12 12 12 12 11 11 11 11 10 10 10 10 10 9 9 10 11 11 11 11 11 11 11 10 10 11 11 12 12 11 9 9 8 8 8 8 9 9 10 10 11 11 12 13 14 15 16 17 18 19 20 21 22 23 24 24 25 26 26 27 27 27 28 28 29 29
10 11 11 12 12 12 12 12 12 11 11 10 10 10 10 10 11 11 11 12 12 12 12 12 12 12 12 11 11 10 9 10 10 9 9 10 11 11 12 11 11 11 11 11 11 11 11 12 12 12 11 10 9 8 8 8 8 8 9 9 10 11 12 13 14 15 16 17 18 19 20 21 22 23 24 24 25 26 26 27 27 27 28 28 28 29
11 12 12 12 13 13 13 13 13 12 12 11 11 11 11 11 11 12 12 12 12 12 12 12 12 12 12 11 11 10 9 11 10 10 9 10 11 12 12 12 12 12 12 12 12 12 13 12 12 12 12 12 11 10 10 10 10 10 10 11 12 13 13 14 15 15 16 17 18 19 19 20 21 22 22 23 24 25 25 26 26 26 26 27 27 27
11 12 12 13 13 13 13 13 13 13 12 12 11 11 11 11 12 12 12 12 12 12 12 12 12 12 12 11 11 10 10 11 11 10 10 10 11 12 12 12 12 12 12 13 13 13 14 14 13 12 13 14 13 13 12 12 13 13 13 13 14 14 15 15 15 16 16 16 17 17 18 19 20 20 21 21 22 23 23 24 24 24 24 24 25 25
12 12 12 12 13 13 13 13 13 12 12 12 11 11 11 12 12 12 12 12 12 12 12 12 12 12 12 11 11 11 11 11 11 11 11 11 11 12 12 12 12 12 13 14 14 14 14 15 14 14 14 14 15 15 15 15 15 15 16 16 16 16 17 17 17 17 17 17 16 16 17 18 18 19 19 20 20 21 21 21 21 21 21 22 22 22
12 12 12 12 13 13 12 12 12 12 12 12 12 12 12 12 12 12 12 12 12 12 12 12 12 12 12 12 11 11 11 11 11 11 11 11 12 12 13 13 13 13 13 14 14 14 15 15 16 16 15 15 16 16 17 17 17 17 17 17 18 18 18 18 18 18 18 17 17 17 16 17 17 17 18 18 18 18 19 19 19 19 19 19 20 20
11 12 12 12 12 12 12 12 12 12 12 12 12 12 12 12 12 12 12 12 12 12 12 12 12 12 12 12 12 12 12 12 12 12 12 12 12 13 14 14 14 14 14 14 14 14 15 16 16 16 17 17 17 17 18 18 18 19 19 19 19 19 19 19 20 19 19 18 18 17 17 16 16 16 16 17 17 17 17 17 17 18 18 18 19 20
11 11 12 12 12 12 12 12 12 12 12 13 13 13 13 13 13 12 12 12 12 12 12 12 12 12 12 12 12 12 12 12 12 12 12 12 13 13 14 14 15 15 14 14 14 15 15 16 16 17 17 18 19 19 19 19 19 19 19 20 20 20 20 20 20 20 19 19 18 17 17 16 16 16 16 16 16 16 16 17 17 17 18 18 19 20
11 12 12 12 12 12 12 12 12 12 13 13 13 13 13 13 13 13 13 13 13 13 12 12 13 13 13 13 12 12 12 13 13 13 13 13 13 14 14 15 15 15 15 15 15 15 16 16 17 17 18 18 19 20 21 21 20 20 20 21 22 22 21 21 21 21 20 19 18 18 17 17 17 17 17 17 17 17 17 17 17 18 18 19 20 20
12 12 12 12 12 12 12 12 13 13 13 13 14 14 14 14 14 14 13 13 13 13 13 13 13 13 13 13 13 13 13 13 13 13 13 13 14 14 14 15 15 15 16 16 16 16 16 17 17 18 18 19 20 21 22 22 21 21 21 22 22 23 23 22 22 21 20 20 19 18 18 17 17 17 17 18 18 18 18 18 18 18 19 20 20 21
13 13 13 13 13 13 13 13 13 13 13 14 14 14 14 14 14 14 14 14 14 14 14 14 14 14 14 13 14 14 14 13 13 13 14 14 14 15 15 15 15 15 16 16 17 17 17 18 18 18 19 19 20 21 22 22 22 22 22 22 22 23 24 23 22 21 20 20 19 18 18 17 18 18 19 19 19 19 19 19 19 20 20 20 21 22
13 13 13 14 14 14 14 14 14 14 14 14 14 14 15 14 14 14 14 14 14 14 14 14 14 14 14 14 14 14 14 14 14 14 14 15 15 15 15 15 15 15 16 16 17 17 18 19 19 19 20 20 21 22 23 23 23 23 23 23 23 23 23 23 22 21 20 20 19 18 17 18 18 19 19 19 20 20 20 20 20 21 21 21 22 22
14 14 14 14 14 14 15 15 14 14 14 14 14 15 15 15 15 14 15 15 15 15 15 15 15 15 15 15 15 15 15 15 14 14 15 15 15 16 15 15 15 16 16 16 17 18 19 19 20 20 21 22 22 23 24 24 24 24 24 24 24 24 23 23 22 21 20 19 19 18 18 18 18 19 19 20 20 21 21 21 21 21 21 22 22 22
14 14 14 14 15 15 15 15 15 15 15 15 15 15 15 15 15 15 15 15 15 15 15 15 16 16 16 16 15 15 15 15 15 15 15 15 15 16 16 16 16 16 16 17 18 18 19 20 20 21 22 23 24 24 24 24 25 25 25 25 25 24 24 23 22 21 20 19 19 18 18 18 18 19 19 20 21 21 22 22 22 22 22 23 23 23
15 15 15 15 15 15 15 15 15 15 15 15 15 15 15 15 15 15 15 15 15 16 16 16 16 16 16 16 16 16 15 15 15 15 15 15 15 16 16 16 16 17 17 18 19 19 20 21 21 22 22 23 24 25 25 25 25 26 26 26 25 25 24 23 22 21 20 20 19 19 18 18 19 19 20 21 22 22 22 22 23 23 23 23 24 24
15 15 15 15 15 15 15 15 15 15 15 15 15 15 15 16 16 16 16 16 16 16 16 17 17 17 17 17 17 16 16 16 15 15 15 14 14 15 16 16 17 18 18 19 20 21 22 22 23 23 23 24 25 25 25 25 25 25 25 26 25 25 25 24 23 22 21 21 20 19 19 19 20 21 21 22 23 24 24 24 24 24 24 24 24 24
15 15 15 15 15 15 15 15 16 15 15 15 15 15 16 16 16 16 17 17 17 17 17 17 17 18 18 18 17 17 17 16 16 16 15 15 15 15 15 16 17 18 19 20 21 22 23 24 24 25 25 24 25 25 25 25 25 25 25 25 25 25 25 25 24 23 22 22 21 20 20 21 21 22 23 24 25 26 25 25 25 24 24 24 24 24
15 16 16 16 16 16 16 16 16 16 16 16 16 16 16 16 16 17 17 17 18 18 18 18 18 18 18 18 18 18 18 17 17 16 16 16 16 16 16 16 17 18 19 20 21 22 23 24 25 26 26 25 24 24 23 24 24 24 24 25 25 25 25 25 25 24 23 23 22 22 22 23 23 24 24 25 26 27 27 27 26 26 25 25 25 25
16 16 16 16 16 16 16 16 16 16 16 16 16 17 17 17 17 17 17 18 18 18 19 19 19 19 19 19 19 19 18 18 17 17 17 17 17 17 17 17 18 18 19 20 21 22 23 23 24 24 25 25 24 23 22 22 22 23 24 25 25 25 24 24 24 24 23 23 22 23 23 24 25 25 25 25 26 27 28 29 28 26 26 25 26 26
Wind_Direction
282 284 286 288 287 285 282 283 286 289 292 297 298 295 287 279 270 262 256 247 237 227 221 216 213 210 208 209 210 213 217 220 223 227 231 235 239 243 248 253 259 264 270 274 277 279 281 282 284 286 288 289 289 288 287 285 282 279 277 275 273 272 271 270 266 263 260 260 259 256 251 247 245 247 249 251 252 253 254 254 254 254 253 252 250 249
281 283 285 286 284 279 275 278 281 285 288 289 288 285 279 269 259 251 244 237 229 221 215 212 211 210 209 210 212 215 218 222 225 229 234 238 243 248 254 260 266 270 273 276 277 278 280 282 284 286 287 287 286 285 284 282 280 278 276 275 274 273 271 270 269 267 265 264 263 261 256 252 250 249 249 250 253 254 256 256 256 257 256 256 255 255
281 282 281 281 277 268 265 273 279 281 283 281 280 278 273 264 257 251 246 239 232 224 217 214 215 218 221 225 228 230 232 235 238 242 245 250 254 259 263 268 271 272 274 275 276 278 280 282 283 284 284 283 282 281 280 279 278 278 279 278 278 276 275 274 274 273 272 270 269 266 264 261 259 257 257 257 258 258 258 258 258 258 258 258 259 259
277 276 274 273 267 258 260 269 277 282 282 279 278 275 270 263 260 260 258 250 240 229 223 223 224 229 235 240 244 247 248 250 253 255 257 261 263 265 267 269 270 271 272 273 275 277 279 281 281 281 279 278 278 277 277 278 279 280 281 281 280 279 278 278 278 277 276 275 273 272 270 269 267 266 265 264 262 261 260 260 259 259 258 258 260 261
270 265 264 262 258 256 263 271 278 282 283 279 277 275 273 271 271 272 272 264 251 238 232 232 234 237 242 247 251 253 254 255 256 258 260 262 264 266 267 268 269 270 271 273 275 277 279 279 278 277 276 275 275 276 277 279 280 282 282 282 281 280 280 281 281 280 279 278 277 276 276 275 273 272 270 268 265 263 262 261 259 259 257 256 257 259
260 255 254 256 258 264 273 279 282 284 284 283 281 281 280 280 281 281 278 273 266 258 250 244 243 245 248 250 253 255 256 256 257 258 260 262 264 266 268 269 270 271 272 273 275 277 277 278 278 277 277 277 278 279 280 281 282 283 282 281 281 281 281 283 284 284 283 282 281 280 279 277 275 273 271 269 267 265 263 262 260 258 256 254 254 255
253 252 254 257 262 270 279 283 285 286 286 287 288 289 288 287 286 284 280 278 277 275 272 265 260 257 256 257 258 260 260 261 261 261 263 264 266 267 269 270 271 271 272 273 275 276 277 278 279 279 280 281 281 282 283 283 283 283 282 282 281 282 283 284 284 284 284 284 283 282 280 277 274 271 269 267 266 265 264 262 260 257 254 252 251 252
249 255 259 262 269 277 282 285 286 287 287 288 289 290 291 291 290 287 284 282 280 279 278 276 274 271 268 267 267 267 266 266 266 266 267 267 268 269 269 270 270 271 271 272 274 275 277 278 280 281 281 282 282 282 282 282 283 283 283 284 283 284 283 283 284 283 283 283 282 281 278 274 271 268 265 264 263 263 262 261 258 255 251 247 245 245
251 259 265 268 272 278 283 285 286 287 287 287 286 286 288 289 289 289 287 284 282 279 278 277 276 275 274 274 273 272 270 270 269 269 269 270 270 270 271 271 271 272 272 273 274 275 276 278 279 280 280 280 281 281 282 282 283 284 284 285 284 284 283 283 282 281 281 280 280 278 275 271 267 263 261 260 260 259 259 258 255 252 248 243 238 236
258 264 270 273 276 278 281 282 284 286 286 285 284 284 284 285 288 290 290 286 284 281 280 279 277 276 276 276 275 273 273 273 272 272 272 272 272 273 274 274 275 275 275 275 275 276 276 277 278 278 279 280 280 281 282 283 284 284 284 284 283 283 282 281 280 279 278 277 275 273 270 266 262 259 257 257 256 256 255 254 251 248 245 241 237 232
264 268 273 276 280 282 282 281 283 285 286 286 285 285 284 282 283 286 288 287 286 283 281 280 278 278 278 277 276 276 275 275 275 275 275 275 276 276 277 277 277 277 277 276 276 277 277 278 278 278 279 279 280 281 282 282 283 283 283 282 282 281 280 279 278 277 275 273 270 267 263 260 257 255 254 253 253 252 251 250 248 246 244 242 239 236
268 272 275 278 281 282 282 283 284 285 286 286 287 287 284 282 281 280 278 278 281 283 283 282 281 280 279 279 279 279 279 278 278 279 279 279 279 278 279 279 278 278 277 277 278 278 278 278 278 278 279 279 280 281 282 282 283 283 283 282 281 280 278 277 276 274 272 269 265 261 257 254 252 250 249 248 248 247 246 245 244 244 243 243 243 242
273 276 278 280 282 282 282 282 283 284 284 282 280 277 278 281 282 280 278 276 278 281 284 284 284 283 282 282 281 282 282 281 281 281 282 281 281 281 280 279 278 278 278 278 278 278 278 279 279 279 279 280 281 282 283 284 284 284 283 282 280 278 277 275 273 271 268 263 259 255 251 249 247 246 245 244 243 242 242 241 242 243 243 245 246 248
276 278 280 281 282 282 282 282 283 282 281 278 276 275 278 282 283 282 281 280 280 283 285 285 285 285 285 284 284 284 283 283 283 283 283 282 282 282 281 280 279 278 278 278 278 278 279 279 280 280 281 282 284 285 286 287 286 285 284 282 279 277 275 272 269 266 261 257 253 249 247 245 243 243 242 240 240 239 239 240 241 243 245 246 249 251
277 280 282 283 282 282 282 283 281 279 278 278 278 278 280 281 281 281 281 281 282 284 286 286 287 286 285 284 284 284 284 283 282 282 281 281 281 281 280 279 279 278 279 279 279 279 280 281 282 283 284 286 287 288 289 289 288 286 283 280 277 274 271 267 264 259 255 251 247 245 243 242 241 240 239 238 238 238 239 241 243 246 248 250 252 254
278 280 281 281 281 281 281 281 279 277 277 278 278 278 278 278 279 280 280 280 282 283 284 285 287 288 287 284 282 281 282 281 281 280 279 279 279 279 278 278 279 280 281 282 283 283 284 284 285 286 287 289 290 291 291 290 287 285 281 277 273 269 266 262 257 253 249 246 244 242 240 239 238 237 237 237 238 239 241 243 246 248 251 253 255 257
277 277 276 277 277 277 279 279 276 275 276 277 277 276 276 276 278 280 280 281 282 282 282 281 280 281 284 288 285 279 279 280 280 279 279 279 280 279 279 280 281 283 285 286 287 287 287 288 288 289 290 292 293 293 291 289 285 281 277 272 268 264 260 256 252 249 246 243 241 240 238 237 236 236 236 237 238 240 242 245 248 251 253 254 256 257
274 274 273 272 273 274 276 276 275 274 274 274 275 276 277 277 279 280 281 281 282 282 282 282 281 276 273 284 287 285 283 282 282 282 281 281 283 284 284 285 286 287 287 288 288 289 289 289 290 291 292 293 293 292 290 287 282 277 272 267 263 259 255 252 248 245 243 241 239 238 237 236 236 236 237 238 240 243 245 248 250 253 254 256 257 258
274 273 272 271 272 274 275 274 272 272 273 274 277 279 280 280 281 282 282 282 282 283 283 283 283 281 278 275 280 285 288 286 285 284 284 284 284 286 290 291 292 290 289 289 290 290 290 290 291 292 293 293 293 291 288 284 279 274 268 264 259 255 252 248 245 242 240 238 237 236 236 236 237 238 240 242 244 247 249 251 253 255 256 258 258 259
275 274 272 271 273 275 274 272 272 272 274 278 279 280 280 281 282 282 281 281 282 283 284 284 284 284 283 280 281 285 289 287 286 285 285 286 286 288 293 295 294 293 292 292 292 291 291 291 291 292 293 293 291 289 286 281 276 270 265 261 257 253 249 245 243 241 239 238 237 237 237 238 239 241 243 245 248 250 252 254 255 257 258 259 260 261
275 274 272 271 270 269 268 270 273 275 276 278 278 278 277 278 279 279 278 279 280 281 282 282 281 281 282 284 286 288 288 287 286 286 287 289 291 292 295 296 295 294 294 295 295 294 292 292 292 292 292 292 291 289 284 279 273 267 262 258 254 250 247 244 242 240 239 238 238 239 239 241 242 244 246 249 251 253 255 257 258 260 261 262 262 263
274 273 273 271 267 264 265 270 275 277 276 275 274 274 274 275 276 277 278 279 280 280 280 279 278 279 281 283 285 286 285 285 285 287 289 292 295 297 298 298 296 296 296 298 297 295 293 293 292 292 292 292 291 288 283 278 271 266 261 256 252 249 247 244 243 241 241 240 241 241 243 244 246 248 250 253 255 257 259 261 262 263 265 266 266 267
276 276 275 273 269 267 268 271 275 276 275 273 272 272 273 273 274 275 278 279 280 279 279 278 278 279 280 281 281 281 281 282 284 287 290 292 294 297 300 300 298 297 297 298 297 295 293 291 291 291 291 291 289 287 282 277 271 266 261 257 253 250 248 246 245 244 244 244 245 246 247 249 251 254 256 258 261 263 265 267 268 269 270 271 271 271
278 278 278 277 274 273 273 274 275 275 274 271 270 270 271 271 271 273 275 277 279 279 279 280 280 281 281 280 280 280 281 282 285 288 290 291 293 296 299 300 299 297 297 298 296 293 291 289 289 289 289 289 288 285 281 276 272 268 264 261 258 255 253 251 250 250 250 250 251 252 254 256 259 261 264 267 269 271 273 273 274 275 275 275 275 274
279 280 282 281 280 278 277 276 276 274 272 270 268 267 266 266 266 267 270 273 276 278 279 282 286 288 289 288 286 284 285 285 287 289 290 291 293 296 298 298 298 297 296 296 294 291 289 287 287 287 287 287 286 284 280 277 274 271 269 267 264 263 261 259 259 258 258 259 260 261 263 265 268 270 272 274 276 277 278 278 279 278 278 278 277 276
281 282 283 282 281 281 279 279 277 274 272 270 268 266 265 264 265 266 270 275 279 282 285 289 294 297 296 297 296 294 291 288 286 287 288 289 292 295 298 298 297 297 295 295 293 289 287 285 284 285 285 285 285 283 280 279 277 276 274 273 271 270 269 268 267 267 268 269 270 271 273 275 276 277 278 279 280 281 281 281 280 280 279 279 278 277
279 280 280 281 281 281 279 278 276 275 275 275 274 272 271 271 272 276 282 288 290 290 294 296 298 298 296 296 296 296 296 293 287 284 285 287 290 294 298 298 298 297 296 295 294 290 287 285 284 284 284 284 283 282 281 280 280 279 278 277 276 275 275 275 275 276 277 277 278 279 280 280 281 281 282 282 282 282 281 281 281 280 280 279 279 278
277 277 278 279 279 279 278 278 278 278 279 280 281 281 279 279 281 284 289 290 290 289 287 287 290 292 291 290 291 295 298 296 289 283 282 285 289 293 297 299 299 298 298 297 295 292 289 287 286 285 284 283 282 281 280 280 280 280 280 279 279 280 280 281 281 282 282 283 283 283 283 283 283 283 283 282 282 282 281 281 281 280 280 279 279 279
275 275 275 275 276 277 277 278 278 278 278 278 279 279 280 279 279 281 284 283 281 281 281 283 286 288 289 289 291 294 297 294 287 282 282 285 288 292 296 299 299 300 300 299 298 298 297 292 288 286 285 283 282 280 280 280 280 280 281 282 283 284 284 285 285 285 285 285 285 284 284 283 283 282 282 281 281 281 280 280 280 279 279 279 279 279
275 275 274 273 273 273 273 273 273 273 273 272 272 272 272 273 276 277 279 278 277 278 279 280 282 284 286 289 292 295 297 292 284 279 281 286 289 293 297 300 301 302 303 304 307 310 310 301 292 288 285 284 282 281 281 281 281 282 282 284 284 285 286 286 286 286 285 284 284 283 283 282 281 281 280 280 279 279 279 278 278 278 277 277 278 278
276 276 276 275 274 273 271 270 270 270 270 269 268 268 268 269 271 274 276 276 276 277 277 278 278 280 282 285 287 289 293 290 284 279 279 285 289 293 298 301 303 303 303 306 312 316 315 303 296 292 287 284 283 282 282 282 282 282 283 284 285 285 285 285 285 284 284 283 283 282 282 281 280 280 279 279 278 278 278 277 277 276 276 276 277 277
277 279 279 280 279 278 276 274 273 273 273 272 272 271 271 271 271 272 273 274 274 275 275 276 276 277 278 280 280 281 285 286 285 281 281 284 288 292 297 300 303 305 304 303 305 308 308 302 299 296 290 285 282 280 279 278 278 280 281 282 283 283 283 283 283 283 282 282 282 281 281 280 280 279 279 278 278 277 277 276 276 275 275 276 276 277
279 279 280 280 280 279 279 278 277 277 277 278 277 277 276 273 271 271 270 270 271 271 272 273 274 275 276 277 277 278 280 282 283 283 284 286 290 293 297 300 303 305 305 303 301 300 300 302 301 299 295 290 285 281 277 273 272 274 277 279 280 279 279 279 279 279 279 279 279 279 279 279 278 278 278 277 277 277 276 276 275 275 275 275 276 277
276 276 276 275 275 275 276 276 277 277 278 279 279 278 276 273 271 269 267 267 267 268 269 271 272 272 273 274 274 274 274 276 279 284 285 287 290 293 296 299 302 304 305 304 304 302 300 301 302 301 300 297 294 292 287 281 276 276 278 280 281 281 280 280 279 279 280 280 280 279 279 279 278 278 278 277 277 276 276 275 275 275 274 275 275 276
274 272 271 271 271 271 272 273 274 276 277 277 277 276 274 271 270 268 266 265 266 266 267 269 270 271 271 271 271 269 267 271 276 282 284 285 288 290 293 297 300 302 303 304 303 303 302 301 301 301 301 301 301 300 297 294 292 291 291 290 290 289 288 287 287 286 286 286 285 284 283 282 281 280 279 278 277 277 276 276 275 275 275 275 275 276
277 275 274 273 273 272 272 273 274 276 277 277 276 274 272 270 268 267 266 265 265 266 267 267 269 270 270 271 269 267 266 270 275 279 281 283 285 288 291 294 297 299 300 300 301 301 302 301 300 299 300 302 305 305 302 301 302 303 303 303 302 300 299 298 297 296 295 294 293 291 289 287 285 283 281 280 278 277 277 276 276 276 276 275 275 276
282 281 279 278 277 277 277 277 278 279 280 279 277 274 271 269 267 266 266 266 266 266 266 267 267 268 268 269 268 268 268 271 274 277 280 282 284 287 289 292 294 295 296 297 298 299 299 299 299 299 300 302 304 305 306 305 306 309 310 310 310 309 308 307 306 304 304 303 300 297 293 290 288 286 284 282 280 279 278 278 277 277 276 276 276 276
283 282 282 280 280 280 280 281 281 282 281 280 278 275 272 269 267 266 266 266 266 266 266 267 266 266 265 265 265 266 267 269 271 275 278 281 283 285 288 290 291 292 293 293 294 295 295 296 297 299 300 300 300 302 304 305 307 309 311 311 311 312 313 313 312 312 311 309 305 301 297 293 290 287 285 283 282 281 280 279 278 277 277 276 276 276
281 281 281 281 281 282 282 283 283 283 281 280 277 275 273 271 270 269 268 267 267 267 267 266 266 265 264 263 263 264 265 266 269 272 274 277 280 283 285 287 289 290 290 290 290 291 291 293 294 296 298 299 299 300 301 303 305 308 310 311 312 313 314 315 315 315 314 311 307 304 300 295 292 289 286 285 283 282 280 280 279 277 276 276 276 276
281 281 282 282 283 283 284 284 283 282 281 279 277 276 274 273 271 270 269 268 268 267 267 267 266 265 264 263 263 263 264 265 267 269 271 274 277 279 281 284 286 287 287 287 287 287 288 289 290 292 295 297 299 300 301 302 304 307 310 312 314 316 315 314 314 314 313 310 308 305 302 298 294 291 288 286 284 282 280 279 278 277 276 276 275 275
285 285 284 284 284 284 284 284 282 281 279 278 277 276 275 274 273 272 271 269 268 268 267 267 267 266 265 264 264 264 264 266 267 268 270 272 275 276 278 280 282 284 284 284 284 284 284 285 287 289 291 294 296 298 299 301 304 307 310 313 314 315 314 313 313 313 312 310 308 306 303 300 296 293 289 287 285 283 281 280 279 278 277 276 275 275
288 288 287 286 285 284 283 282 280 279 278 277 277 275 275 274 274 274 273 272 272 270 269 269 268 267 266 265 265 264 265 266 268 269 270 272 273 274 275 277 279 280 281 282 282 282 282 284 285 287 290 293 295 296 298 300 302 305 308 310 312 313 313 313 313 312 311 309 308 306 303 300 297 294 291 289 287 285 284 282 281 280 279 278 277 277
288 288 287 287 286 284 282 281 279 278 276 276 275 274 275 275 275 275 275 274 274 273 272 271 270 269 268 266 266 266 266 266 268 269 271 272 272 273 274 276 277 278 279 280 281 282 283 284 286 287 290 292 294 295 297 299 302 304 306 309 311 312 313 312 310 309 307 306 305 303 301 299 297 295 293 291 290 288 287 286 284 283 282 281 281 280
287 287 286 285 284 283 281 280 279 278 276 275 274 274 274 275 275 275 275 275 275 274 273 272 272 271 269 268 268 269 270 270 270 271 273 273 274 274 275 276 277 277 278 279 280 282 284 286 287 289 292 293 294 295 296 299 302 304 306 308 309 309 308 308 308 307 305 304 303 302 301 299 297 296 294 293 292 292 291 290 288 287 287 286 286 285
286 285 284 282 282 281 281 280 279 278 278 277 276 276 275 275 275 275 275 275 274 274 273 272 272 271 270 269 269 271 273 274 275 274 275 275 275 276 276 277 277 278 278 279 281 283 285 287 290 292 293 294 294 295 297 299 302 303 305 306 307 307 306 306 306 306 305 304 303 302 301 300 299 297 296 295 295 294 294 293 293 293 292 291 291 290
283 282 281 280 279 279 279 278 278 279 278 278 277 277 276 276 276 276 275 274 274 273 272 272 271 270 269 269 269 270 272 275 277 278 278 277 277 276 276 277 277 278 279 281 282 284 286 288 290 292 293 294 294 294 296 299 301 303 305 305 305 305 305 305 305 304 303 302 301 301 301 299 299 298 297 296 295 295 295 295 296 296 295 295 294 294
279 279 278 277 277 276 276 276 277 277 277 276 276 276 276 276 276 276 275 274 274 273 272 271 270 269 269 269 269 270 271 273 276 278 278 278 278 278 278 278 279 280 281 283 284 285 286 288 289 290 291 292 293 294 296 298 300 302 303 303 303 303 303 303 303 302 301 300 300 300 300 299 298 298 298 297 296 296 296 296 296 296 296 296 296 296
275 275 274 274 274 273 273 274 274 274 274 274 274 275 275 275 276 276 275 275 274 272 272 271 270 270 270 270 270 270 271 272 274 275 276 275 275 276 278 279 281 282 283 284 285 286 287 287 288 288 289 290 291 294 297 298 299 300 300 300 300 301 301 302 302 301 301 300 299 299 299 299 300 300 300 300 299 298 298 298 297 296 297 297 298 298
273 272 272 272 272 272 272 273 273 273 273 274 274 274 274 274 274 275 275 275 274 273 272 272 271 271 271 271 271 272 272 272 273 273 272 272 271 272 274 276 279 281 283 285 285 286 287 287 287 287 288 289 291 293 296 297 298 298 298 298 298 299 300 301 301 301 301 300 300 299 299 300 301 302 302 302 301 300 299 299 298 297 298 299 300 300
271 271 271 271 271 272 272 272 273 273 273 274 274 274 274 273 273 273 273 274 274 274 273 273 273 272 272 273 273 274 274 275 274 274 273 271 271 271 271 273 275 278 280 282 284 285 286 287 287 288 288 289 290 292 294 295 295 295 295 295 296 297 298 299 300 300 301 300 300 300 301 302 302 303 302 301 301 301 300 300 300 300 300 301 301 301
270 270 270 270 271 271 271 272 272 272 273 273 274 274 274 274 273 273 272 273 273 273 274 273 273 273 273 273 275 275 276 276 276 275 274 274 274 274 274 275 276 278 280 282 283 284 286 288 289 290 291 291 292 292 292 292 292 292 293 293 294 295 296 297 298 298 298 298 298 299 300 301 302 302 302 299 299 299 299 300 301 301 300 300 300 300